Weather in Zaprudnoe

Russia / Republic of Crimea     44°35′40″N   34°19′09″E
temp.,
°C
wind,
m/s
gust,
m/s
humid.,
%
clouds,
%
prec.,
mm/h
press.,
hPa
HPBL,
m
28 february, sun
sun2800:00+8nnw4583100 0.1 1018111
03:00+6nw5681100 0.3 1019330
06:00+4nnw5674100 0.1 1020330
09:00+5nw567169 0.1 1021504
12:00+5nw236357 0.1 1022802
15:00+5wnw247149 0.4 1022776
18:00+4nnw337542 0.6 1023485
21:00+4nw337338 0.8 1024412
1 march, mon
mon100:00+3nw337530 0.1 1025262
03:00+2nw447642 0.1 1025184
06:00+3nnw2267100 0.0 1025207
09:00+3nne237187 0.1 1026388
12:00+3e328499 0.1 1027359
15:00+3e338698 0.4 1027368
18:00+3e448897 0.3 1027391
21:00+3ene448797 0.8 1029448
2 march, tue
tue200:00+3n237293 0.2 1030587
03:00+2nnw227186 0.2 1030234
06:00+2nnw226846 0.0 1030211
09:00+2wnw126324 0.0 1030422
12:00+5sw44630 0.0 1030841
15:00+5sw55631 0.0 1029696
18:00+4nnw55696 0.0 1027380
21:00+3nw557346 0.0 1027256
3 march, wed
wed300:00+4nw557511 0.0 1026242
03:00+5wnw237616 0.0 1025258
06:00+6wnw237839 0.0 1025262
09:00+6nw447326 0.0 1026212
12:00+8ese13640 0.0 1026436
15:00+7ese13728 0.0 1026403
18:00+7ese018151 0.1 102670
21:00+5w228069 0.1 1028134
4 march, thu
thu400:00+5nw227450 0.0 102885
03:00+5sse338159 0.1 1028456
06:00+5ese347995 0.2 1027526
09:00+5se337994 0.3 1027504
12:00+6se338452 0.2 1027429
15:00+6sse117844 0.3 1025348
18:00+6ssw227736 0.0 1024373
21:00+5sw337831 0.0 1023472